When you browse on this site, cookies collect data to enhance your experience and personalize the content and advertising you see.
Visit our Privacy Policy to learn more. By continuing to use the site, you agree to this use of cookies and data.
  • în România
  • Lista ţărilor
  • Pe 7 zile
  • Temperatura apei
  • Hartă satelitară
  • Meteo pe hartă
  • Widget-uri
  • user-avatar
    Intrare

    Meteo pe oră la Kingston

    Astăzi, 12 Decembrie, Miercuri

    Timp Temperatura Precipitaţii Vânt Presiune Umiditate
    00:00 +20°C° 0.1 mm 3 m/s 708 mmHg 92%
    01:00 +19°C° 0.1 mm 3 m/s 708 mmHg 92%
    02:00 +19°C° 0.1 mm 3 m/s 708 mmHg 92%
    03:00 +19°C° 0.1 mm 3 m/s 707 mmHg 92%
    04:00 +19°C° 0.1 mm 4 m/s 707 mmHg 92%
    05:00 +20°C° 0.1 mm 4 m/s 708 mmHg 92%
    06:00 +20°C° 0.1 mm 4 m/s 708 mmHg 92%
    07:00 +20°C° 0.1 mm 4 m/s 708 mmHg 92%
    08:00 +21°C° 0.2 mm 4 m/s 709 mmHg 86%
    09:00 +23°C° 0.2 mm 4 m/s 709 mmHg 79%
    10:00 +25°C° 0.2 mm 4 m/s 709 mmHg 73%
    11:00 +26°C° 0.2 mm 4 m/s 709 mmHg 71%
    12:00 +26°C° 0.2 mm 4 m/s 709 mmHg 70%
    13:00 +26°C° 0.2 mm 4 m/s 708 mmHg 68%
    14:00 +26°C° 0.1 mm 4 m/s 708 mmHg 69%
    15:00 +26°C° 0.1 mm 4 m/s 707 mmHg 71%
    16:00 +25°C° 0.1 mm 4 m/s 707 mmHg 72%
    17:00 +23°C° 0.1 mm 4 m/s 707 mmHg 77%
    18:00 +22°C° 0.1 mm 4 m/s 707 mmHg 83%
    19:00 +21°C° 0.1 mm 4 m/s 707 mmHg 89%
    20:00 +21°C° 0.2 mm 4 m/s 707 mmHg 90%
    21:00 +21°C° 0.2 mm 4 m/s 708 mmHg 91%
    22:00 +20°C° 0.2 mm 4 m/s 708 mmHg 93%
    23:00 +20°C° 0.2 mm 4 m/s 708 mmHg 93%

    Mâine, 13 Decembrie, Joi

    Timp Temperatura Precipitaţii Vânt Presiune Umiditate
    00:00 +20°C° 0.2 mm 4 m/s 707 mmHg 93%
    01:00 +20°C° 0.2 mm 4 m/s 707 mmHg 94%
    02:00 +20°C° 0.1 mm 4 m/s 707 mmHg 94%
    03:00 +20°C° 0.1 mm 4 m/s 707 mmHg 94%
    04:00 +20°C° 0.1 mm 4 m/s 707 mmHg 94%
    05:00 +20°C° 0.1 mm 4 m/s 707 mmHg 94%
    06:00 +20°C° 0.1 mm 4 m/s 707 mmHg 94%
    07:00 +20°C° 0.1 mm 4 m/s 707 mmHg 94%
    08:00 +22°C° 0.1 mm 4 m/s 708 mmHg 86%
    09:00 +23°C° 0.1 mm 4 m/s 709 mmHg 78%
    10:00 +26°C° 0.1 mm 4 m/s 709 mmHg 70%
    11:00 +27°C° 0 mm 4 m/s 709 mmHg 65%
    12:00 +28°C° 0 mm 4 m/s 708 mmHg 59%
    13:00 +29°C° 0 mm 4 m/s 708 mmHg 54%
    14:00 +28°C° 0 mm 4 m/s 708 mmHg 57%
    15:00 +28°C° 0 mm 4 m/s 707 mmHg 59%
    16:00 +27°C° 0 mm 4 m/s 707 mmHg 62%
    17:00 +26°C° 0 mm 4 m/s 707 mmHg 70%
    18:00 +23°C° 0 mm 4 m/s 707 mmHg 79%
    19:00 +21°C° 0 mm 3 m/s 707 mmHg 87%
    20:00 +21°C° 0 mm 3 m/s 707 mmHg 89%
    21:00 +21°C° 0 mm 3 m/s 708 mmHg 90%
    22:00 +20°C° 0 mm 3 m/s 708 mmHg 91%
    23:00 +20°C° 0 mm 3 m/s 708 mmHg 91%

    Poimâine, 14 Decembrie, Vineri

    Timp Temperatura Precipitaţii Vânt Presiune Umiditate
    00:00 +20°C° 0 mm 3 m/s 707 mmHg 90%
    01:00 +19°C° 0 mm 4 m/s 707 mmHg 90%
    02:00 +19°C° 0 mm 3 m/s 707 mmHg 90%
    03:00 +19°C° 0 mm 3 m/s 707 mmHg 90%
    04:00 +19°C° 0 mm 3 m/s 706 mmHg 90%
    05:00 +19°C° 0 mm 4 m/s 707 mmHg 90%
    06:00 +20°C° 0 mm 4 m/s 707 mmHg 90%
    07:00 +20°C° 0 mm 4 m/s 707 mmHg 89%
    08:00 +22°C° 0 mm 4 m/s 708 mmHg 82%
    09:00 +23°C° 0 mm 4 m/s 709 mmHg 75%
    10:00 +26°C° 0 mm 5 m/s 709 mmHg 68%
    11:00 +27°C° 0.3 mm 5 m/s 709 mmHg 67%
    12:00 +27°C° 0.3 mm 5 m/s 708 mmHg 67%
    13:00 +27°C° 0.3 mm 6 m/s 708 mmHg 67%
    14:00 +27°C° 0.3 mm 5 m/s 708 mmHg 68%
    15:00 +26°C° 0.3 mm 5 m/s 707 mmHg 70%
    16:00 +26°C° 0.3 mm 5 m/s 707 mmHg 72%
    17:00 +23°C° 0.3 mm 5 m/s 707 mmHg 77%
    18:00 +22°C° 0.3 mm 4 m/s 707 mmHg 83%
    19:00 +21°C° 0.3 mm 4 m/s 707 mmHg 89%
    20:00 +21°C° 0.1 mm 4 m/s 708 mmHg 90%
    21:00 +21°C° 0.1 mm 4 m/s 708 mmHg 91%
    22:00 +21°C° 0.1 mm 4 m/s 708 mmHg 92%
    23:00 +20°C° 0.2 mm 4 m/s 708 mmHg 93%

    15 Decembrie, Sâmbătă

    Timp Temperatura Precipitaţii Vânt Presiune Umiditate
    00:00 +20°C° 0.2 mm 4 m/s 708 mmHg 93%
    01:00 +20°C° 0.2 mm 4 m/s 708 mmHg 93%
    02:00 +20°C° 0.2 mm 4 m/s 708 mmHg 93%
    03:00 +20°C° 0.2 mm 4 m/s 707 mmHg 93%
    04:00 +20°C° 0.2 mm 4 m/s 707 mmHg 92%
    05:00 +20°C° 0.1 mm 4 m/s 708 mmHg 92%
    06:00 +20°C° 0.1 mm 4 m/s 708 mmHg 91%
    07:00 +20°C° 0.1 mm 3 m/s 709 mmHg 91%
    08:00 +22°C° 0.3 mm 4 m/s 709 mmHg 84%
    09:00 +25°C° 0.3 mm 4 m/s 710 mmHg 77%
    10:00 +26°C° 0.3 mm 5 m/s 710 mmHg 70%
    11:00 +27°C° 0.1 mm 5 m/s 710 mmHg 67%
    12:00 +28°C° 0.1 mm 5 m/s 709 mmHg 63%
    13:00 +28°C° 0.1 mm 5 m/s 709 mmHg 60%
    14:00 +28°C° 0.1 mm 5 m/s 708 mmHg 62%
    15:00 +27°C° 0.1 mm 5 m/s 708 mmHg 65%
    16:00 +27°C° 0.1 mm 5 m/s 708 mmHg 68%
    17:00 +25°C° 0.1 mm 5 m/s 708 mmHg 75%
    18:00 +23°C° 0.1 mm 4 m/s 708 mmHg 82%
    19:00 +21°C° 0.1 mm 4 m/s 708 mmHg 89%
    20:00 +21°C° 0.1 mm 4 m/s 709 mmHg 90%
    21:00 +21°C° 0.1 mm 3 m/s 709 mmHg 91%
    22:00 +21°C° 0.1 mm 3 m/s 709 mmHg 92%
    23:00 +21°C° 0 mm 3 m/s 709 mmHg 93%

    16 Decembrie, Duminică

    Timp Temperatura Precipitaţii Vânt Presiune Umiditate
    00:00 +20°C° 0 mm 3 m/s 709 mmHg 93%
    01:00 +20°C° 0 mm 3 m/s 708 mmHg 93%
    02:00 +20°C° 0 mm 3 m/s 708 mmHg 93%
    03:00 +20°C° 0 mm 3 m/s 708 mmHg 93%
    04:00 +20°C° 0 mm 3 m/s 708 mmHg 93%
    05:00 +20°C° 0.1 mm 3 m/s 708 mmHg 93%
    06:00 +20°C° 0.1 mm 3 m/s 709 mmHg 92%
    07:00 +20°C° 0.1 mm 3 m/s 709 mmHg 92%
    08:00 +22°C° 0 mm 3 m/s 710 mmHg 82%
    09:00 +25°C° 0 mm 3 m/s 710 mmHg 73%
    10:00 +27°C° 0 mm 3 m/s 711 mmHg 63%
    11:00 +28°C° 0 mm 3 m/s 710 mmHg 60%
    12:00 +28°C° 0 mm 3 m/s 709 mmHg 57%
    13:00 +29°C° 0 mm 4 m/s 709 mmHg 54%
    14:00 +28°C° 0.1 mm 4 m/s 708 mmHg 57%
    15:00 +28°C° 0.1 mm 4 m/s 708 mmHg 60%
    16:00 +27°C° 0.1 mm 4 m/s 708 mmHg 62%
    17:00 +26°C° 0.1 mm 3 m/s 708 mmHg 69%
    18:00 +24°C° 0.1 mm 3 m/s 708 mmHg 77%
    19:00 +21°C° 0.1 mm 3 m/s 708 mmHg 84%
    20:00 +21°C° 0.1 mm 3 m/s 708 mmHg 86%
    21:00 +21°C° 0.1 mm 3 m/s 708 mmHg 88%
    22:00 +20°C° 0.1 mm 3 m/s 708 mmHg 90%
    23:00 +20°C° 0.1 mm 2 m/s 708 mmHg 90%

    17 Decembrie, Luni

    Timp Temperatura Precipitaţii Vânt Presiune Umiditate
    00:00 +20°C° 0.1 mm 2 m/s 708 mmHg 90%
    01:00 +20°C° 0.1 mm 2 m/s 708 mmHg 91%
    02:00 +20°C° 0.1 mm 2 m/s 707 mmHg 91%
    03:00 +20°C° 0.1 mm 2 m/s 707 mmHg 91%
    04:00 +20°C° 0.1 mm 2 m/s 707 mmHg 90%
    05:00 +20°C° 0 mm 3 m/s 707 mmHg 90%
    06:00 +20°C° 0 mm 3 m/s 708 mmHg 90%
    07:00 +20°C° 0 mm 3 m/s 708 mmHg 91%
    08:00 +22°C° 0 mm 3 m/s 709 mmHg 80%
    09:00 +25°C° 0 mm 3 m/s 709 mmHg 70%
    10:00 +27°C° 0 mm 3 m/s 710 mmHg 59%
    11:00 +28°C° 0 mm 3 m/s 709 mmHg 56%
    12:00 +29°C° 0 mm 3 m/s 709 mmHg 53%
    13:00 +30°C° 0 mm 3 m/s 708 mmHg 49%
    14:00 +29°C° 0.1 mm 3 m/s 708 mmHg 54%
    15:00 +28°C° 0.1 mm 3 m/s 707 mmHg 59%
    16:00 +27°C° 0.1 mm 4 m/s 707 mmHg 63%
    17:00 +26°C° 0 mm 3 m/s 707 mmHg 71%
    18:00 +24°C° 0 mm 3 m/s 707 mmHg 79%
    19:00 +21°C° 0 mm 2 m/s 707 mmHg 86%
    20:00 +21°C° 0 mm 2 m/s 708 mmHg 88%
    21:00 +21°C° 0 mm 2 m/s 708 mmHg 90%
    22:00 +20°C° 0 mm 2 m/s 708 mmHg 92%
    23:00 +20°C° 0 mm 2 m/s 707 mmHg 92%
    Arată mai mult